This is the latest recevied weather packets stored in our database for station/object PA1CD-13. If no packets are shown the sender has not sent any weather packets the latest 10 day(s).
| Time | Temp. | Humidity | Pressure | Rain* | Wind** | Luminosity | Snow |
|---|---|---|---|---|---|---|---|
| 1777542731 | 16.11° C | 39% | 1028.7 hPa | 0 mm | - | 707 W/m² | - |
| 1777542605 | 16.11° C | 39% | 1028.7 hPa | 0 mm | - | 716 W/m² | - |
| 1777542486 | 16.11° C | 39% | 1028.7 hPa | 0 mm | - | 689 W/m² | - |
| 1777542366 | 16.11° C | 41% | 1028.8 hPa | 0 mm | - | 689 W/m² | - |
| 1777542245 | 16.11° C | 40% | 1028.8 hPa | 0 mm | - | 695 W/m² | - |
| 1777542125 | 16.11° C | 39% | 1028.7 hPa | 0 mm | - | 705 W/m² | - |
| 1777542006 | 16.11° C | 39% | 1028.9 hPa | 0 mm | - | 695 W/m² | - |
| 1777541886 | 16.11° C | 39% | 1028.9 hPa | 0 mm | - | 677 W/m² | - |
| 1777541765 | 16.11° C | 40% | 1028.9 hPa | 0 mm | - | 695 W/m² | - |
| 1777541646 | 15.56° C | 41% | 1028.8 hPa | 0 mm | - | 695 W/m² | - |
| 1777541525 | 15.56° C | 40% | 1028.8 hPa | 0 mm | - | 695 W/m² | - |
| 1777541408 | 15.56° C | 40% | 1028.9 hPa | 0 mm | - | 642 W/m² | - |
| 1777541286 | 15.56° C | 42% | 1029 hPa | 0 mm | - | 644 W/m² | - |
| 1777541166 | 15.56° C | 40% | 1029 hPa | 0 mm | - | 635 W/m² | - |
| 1777541045 | 15.56° C | 40% | 1028.9 hPa | 0 mm | - | 628 W/m² | - |
| 1777540925 | 15.56° C | 40% | 1028.9 hPa | 0 mm | - | 612 W/m² | - |
| 1777540806 | 15.56° C | 41% | 1029 hPa | 0 mm | - | 665 W/m² | - |
| 1777540685 | 15.56° C | 41% | 1028.9 hPa | 0 mm | - | 665 W/m² | - |
| 1777540566 | 15.56° C | 42% | 1029 hPa | 0 mm | - | 665 W/m² | - |
| 1777540445 | 15.56° C | 41% | 1029 hPa | 0 mm | - | 682 W/m² | - |
| 1777540325 | 15.56° C | 41% | 1029.1 hPa | 0 mm | - | 691 W/m² | - |
| 1777540206 | 15.56° C | 40% | 1029 hPa | 0 mm | - | 691 W/m² | - |
| 1777540086 | 15.56° C | 40% | 1029 hPa | 0 mm | - | 637 W/m² | - |
| 1777539965 | 15.56° C | 40% | 1029.1 hPa | 0 mm | - | 637 W/m² | - |
| 1777539846 | 15.56° C | 41% | 1029.1 hPa | 0 mm | - | 637 W/m² | - |
* Rain latest hour (hover to see other rain measurements)
** Current wind speed in m/s (hover to see current wind gust speed)